Other Public Products
Issued by NWS Charleston, SC

Home | Current Version | Previous Version | Text Only | Print | Product List | Glossary On
Versions: 1 2 3 4 5 6 7 8 9 10 11 12 13 14 15 16 17 18 19 20 21 22 23 24 25 26 27 28 29 30 31 32 33 34 35 36 37 38 39 40 41 42 43 44 45 46 47 48 49 50
799
FPUS82 KCHS 222327
OPUCHS

TEST...KCHS/KSAV Gateway Observations...TEST
National Weather Service Charleston SC
700 PM EDT TUE AUG 22 2017

NOTE: "fair" indicates few or no clouds below 12,000 feet with no
significant weather and/or obstructions to visibility.

SCZ050-WAZ558-NCZ071-TXZ119-213-PAZ071-DCZ001-FLZ074-172-MI076-
NYZ176-178-MAZ016-IL014-TNZ027-NJZ106-GAZ044-MD014-230000-

...Gateway Observations for Charleston International...

CITY           SKY/WX    TMP DP  RH WIND       PRES   REMARKS
Chas Airport   MOSUNNY   84  74  71 S10       30.00F HX  91
Seattle        SUNNY     85  53  33 SW6       30.00F
Charlotte      CLOUDY    87  73  62 SW8       29.98F HX  94
Dallas DFW     MOSUNNY   96  68  39 SE9       29.94F HX 101
Dallas Love    MOSUNNY   96  66  37 SE13      29.94F HX  99
Philladelphia  PTCLDY    88  71  57 S13G22    29.83R HX  94
Wash National  PTCLDY    89  75  63 S15       29.84S HX  99
Baltimore      PTCLDY    88  70  55 S10G17    29.82S HX  93
Miami          PTSUNNY   88  75  65 E14       29.96S HX  97
Detroit        PTSUNNY   78  59  51 W15       29.81R
Newark         PTCLDY    88  71  57 S18       29.78F HX  94
Laguardia      MOCLDY    86  75  69 S14G22    29.78F HX  95
J F K          MOCLDY    79  76  90 S24G32    29.80F
Boston Logan   MOCLDY    80  72  76 S18       29.76F
Ft. Lauderdale PTSUNNY   86  76  71 E15       29.95S HX  96
Chicago O`Hare MOSUNNY   78  50  37 NW15G25   29.93R
Chicago Midway MOSUNNY   78  51  38 NW13      29.92R
Houston Bush   MOSUNNY   91  70  49 E15       29.97F HX  96
Houston Hobby  PTSUNNY   93  70  46 SE7       29.97F HX  99
Nashville      PTSUNNY   88  70  55 SW9       29.92F HX  93
Atlanta        MOSUNNY   90  68  48 SW10      30.01F HX  94

$$

GAZ044-118-TXZ119-213-NCZ071-DCZ001-MDZ014-506-PAZ021-071-NJZ106-
NYZ176-178-MAZ106-OHZ011-021-055-MIZ076-KYZ091-ILZ014-INZ047-
MNZ060-ONZ431-230000-

...Gateway Observations for Savannah International...

CITY           SKY/WX    TMP DP  RH WIND       PRES   REMARKS
Savannah Arpt  CLOUDY    82  75  79 SE5       30.02F
Atlanta        MOSUNNY   90  68  48 SW10      30.01F HX  94
Charlotte      CLOUDY    87  73  62 SW8       29.98F HX  94
Dallas DFW     MOSUNNY   96  68  39 SE9       29.94F HX 101
Houston Bush   MOSUNNY   91  70  49 E15       29.97F HX  96
Wash National  PTCLDY    89  75  63 S15       29.84S HX  99
Wash Dulles    PTCLDY    87  71  58 S13       29.84S HX  93
Baltimore      PTCLDY    88  70  55 S10G17    29.82S HX  93
Philadelphia   PTCLDY    88  71  57 S13G22    29.83R HX  94
Newark         PTCLDY    88  71  57 S18       29.78F HX  94
Laguardia      MOCLDY    86  75  69 S14G22    29.78F HX  95
J F K          MOCLDY    79  76  90 S24G32    29.80F
Boston         MOCLDY    80  72  76 S18       29.76F
Pittsburg      CLOUDY    75  70  84 SW10      29.87R
Akron          MOSUNNY   79  64  60 W12       29.85R
Cleveland      CLOUDY    79  66  64 W14       29.83R
Cincinnati     CLOUDY    76  70  82 W6        29.92S
Columbus       PTSUNNY   76  69  79 W8        29.87F
Detroit        PTSUNNY   78  59  51 W15       29.81R
Chicago O`Hare MOSUNNY   78  50  37 NW15G25   29.93R
Minneapolis    MOSUNNY   73  45  36 NW17G26   30.04R
Indianapolis   MOSUNNY   79  64  60 W17       29.91S
Toronto Canada PTSUNNY   72  61  68 NW20G32   29.68R

$$




USA.gov is the U.S. government's official web portal to all federal, state and local government web resources and services.